KUIPER-00192

导读

KUIPER-00192(NORAD编号68575)是亚马逊柯伊伯项目(Project Kuiper)星座的低轨卫星之一,属于该项目2025年首批成功发射的27颗运营卫星。柯伊伯项目计划部署总计3236颗卫星,旨在构建全球卫星宽带互联网,直接对标SpaceX星链。卫星采用红外激光星间链路,可实现百公里100Gbps传输,配合不同规格用户终端,能提供100Mbps到400Mbps不等的网络服务。目前项目正按计划推进,目标在2026年中期完成半数卫星部署并推出商用服务,已成为低轨卫星互联网赛道的核心力量。

Basic Information
目录编号:
68575
目录名称:
KUIPER-00192
国际标识:
2026-072C
轨道中心:
EARTH
卫星名称:
KUIPER-00192
卫星全名:
KUIPER-00192
卫星状态:
在轨 (已飞行161 天)
发射日期:
2026-04-04 UTC
国别 :
美国 (US)
星等 :
--
This satellite is enrolled in the Space Conjunction Data Service (SCDS) and the current flight risk assessment level is: No High Risk
Orbit Information
数据来源 国际轨道数据 AOE轨道数据
星历时间 2026-09-11T12:37:46+0800
23小时前
查看轨道信息
2026-09-06T23:00:00+0800
5天前
查看轨道信息
半长轴 7007.68km 7007.708km
偏心率 0.0001 0.0000989
轨道倾角 51.900° 51.902°
近地点辐角 88.396° 29.909°
升交点赤经 172.829° 193.028°
平近点角 271.712° 98.850°
近地点 628.842km 628.877km
远地点 630.244km 630.265km
周期 97.302分钟 97.302分钟
每日圈数 14.799307 14.799221
Detailed Information
使用方式:
暂无
2D Orbit Map
3D Orbit Map
Orbit Altitude Analysis Chart
Orbit Inclination Analysis Chart
Orbit Comprehensive Analysis Chart
View Comprehensive Chart
Miss Distance Evolution Trend with All Objects
Collision Probability Evolution Trend with All Objects